| time (UTC) | temp C | wind direction | speed KPH | gust KPH | rain 1hr cm | rain 24hr cm | rain mn cm | humidity % | barometer mb |
| 20260507052216 | 15 | 0.0 | 0.0 | 0.00 | 1.55 | 0.00 | 93 | 1012.0 | |
| 20260507051218 | 15 | 0.0 | 0.0 | 0.00 | 1.55 | 0.00 | 93 | 1011.8 | |
| 20260507050254 | 15 | 0.0 | 0.0 | 0.00 | 1.55 | 0.00 | 93 | 1011.6 | |
| 20260507045218 | 15 | 0.0 | 0.0 | 0.00 | 1.55 | 0.00 | 93 | 1011.5 | |
| 20260507044216 | 15 | 0.0 | 0.0 | 0.00 | 1.55 | 0.00 | 93 | 1011.5 | |
| 20260507043216 | 15 | 0.0 | 0.0 | 0.00 | 1.55 | 0.00 | 93 | 1011.5 | |
| 20260507042254 | 15 | 0.0 | 0.0 | 0.00 | 1.55 | 0.00 | 93 | 1011.5 | |
| 20260507041216 | 15 | 0.0 | 0.0 | 0.00 | 1.55 | 0.00 | 93 | 1011.4 | |
| 20260507040218 | 14 | 0.0 | 0.0 | 0.00 | 1.55 | 0.00 | 92 | 1011.3 | |
| 20260507035216 | 14 | 0.0 | 0.0 | 0.00 | 1.55 | 0.00 | 92 | 1011.2 | |
| 20260507034218 | 15 | 0.0 | 0.0 | 0.00 | 1.55 | 0.00 | 92 | 1011.2 | |
| 20260507033216 | 15 | 0.0 | 0.0 | 0.00 | 1.55 | 0.00 | 92 | 1011.3 | |
| 20260507032236 | 15 | 0.0 | 0.0 | 0.00 | 1.55 | 0.00 | 92 | 1011.2 | |
| 20260507031218 | 15 | 0.0 | 0.0 | 0.00 | 1.55 | 0.00 | 92 | 1011.2 | |
| 20260507030254 | 15 | 0.0 | 0.0 | 0.00 | 1.55 | 0.00 | 92 | 1011.3 | |
| 20260507025218 | 15 | 0.0 | 0.0 | 0.00 | 1.55 | 0.00 | 91 | 1011.2 | |
| 20260507024216 | 15 | 0.0 | 0.0 | 0.00 | 1.55 | 0.00 | 91 | 1011.2 | |
| 20260507023218 | 15 | 0.0 | 0.0 | 0.00 | 1.55 | 0.00 | 91 | 1011.2 | |
| 20260507022216 | 15 | 0.0 | 0.0 | 0.00 | 1.55 | 0.00 | 91 | 1011.3 | |
| 20260507021216 | 15 | 0.0 | 0.0 | 0.00 | 1.55 | 0.00 | 91 | 1011.1 | |
| 20260507020309 | 15 | 0.0 | 0.0 | 0.00 | 1.55 | 0.00 | 91 | 1011.2 | |
| 20260507015238 | 15 | 0.0 | 0.0 | 0.00 | 1.55 | 0.00 | 91 | 1011.2 | |
| 20260507014223 | 15 | 0.0 | 0.0 | 0.00 | 1.55 | 0.00 | 91 | 1011.2 | |
| 20260507013216 | 15 | 0.0 | 0.0 | 0.00 | 1.55 | 0.00 | 90 | 1011.3 | |
| 20260507012218 | 15 | 0.0 | 0.0 | 0.00 | 1.55 | 0.00 | 90 | 1011.2 | |
| 20260507010216 | 15 | 0.0 | 0.0 | 0.00 | 1.55 | 0.00 | 90 | 1011.3 | |
| 20260507005255 | 15 | 0.0 | 0.0 | 0.00 | 1.55 | 0.00 | 90 | 1011.2 | |
| 20260507004218 | 15 | 0.0 | 0.0 | 0.00 | 1.55 | 0.00 | 90 | 1011.2 | |
| 20260507003254 | 15 | 0.0 | 0.0 | 0.00 | 1.55 | 0.00 | 89 | 1011.3 | |
| 20260507002218 | 15 | 0.0 | 0.0 | 0.00 | 1.55 | 0.00 | 89 | 1011.2 | |
| 20260507001218 | 15 | 0.0 | 0.0 | 0.00 | 1.55 | 0.00 | 89 | 1011.2 | |
| 20260507000216 | 15 | 0.0 | 0.0 | 0.00 | 1.55 | 0.00 | 89 | 1011.3 | |
| 20260506235216 | 15 | 0.0 | 0.0 | 0.00 | 1.55 | 0.00 | 89 | 1011.3 | |
| 20260506234218 | 15 | 0.0 | 0.0 | 0.00 | 1.55 | 0.00 | 88 | 1011.4 | |
| 20260506233218 | 15 | 0.0 | 0.0 | 0.00 | 1.55 | 0.00 | 88 | 1011.4 | |
| 20260506232218 | 15 | 0.0 | 0.0 | 0.00 | 1.55 | 0.00 | 88 | 1011.5 | |
| 20260506231218 | 15 | 0.0 | 0.0 | 0.00 | 1.55 | 0.00 | 88 | 1011.7 | |
| 20260506230218 | 15 | 0.0 | 0.0 | 0.00 | 1.55 | 0.00 | 88 | 1011.7 | |
| 20260506225237 | 15 | 0.0 | 11.3 | 0.00 | 1.55 | 0.00 | 87 | 1011.6 | |
| 20260506224216 | 15 | 0.0 | 0.0 | 0.00 | 1.55 | 0.00 | 87 | 1011.6 | |
| 20260506223216 | 15 | 135 | 6.4 | 35.4 | 0.00 | 1.55 | 0.00 | 87 | 1011.6 |
| 20260506222255 | 15 | 0.0 | 0.0 | 0.00 | 1.55 | 0.00 | 87 | 1011.7 | |
| 20260506221218 | 15 | 0.0 | 0.0 | 0.00 | 1.55 | 0.00 | 87 | 1011.6 | |
| 20260506220255 | 15 | 0.0 | 0.0 | 0.00 | 1.55 | 0.00 | 88 | 1011.5 | |
| 20260506215217 | 15 | 0.0 | 0.0 | 0.00 | 1.55 | 1.55 | 88 | 1011.4 | |
| 20260506214245 | 15 | 0.0 | 0.0 | 0.00 | 1.55 | 1.55 | 89 | 1011.5 | |
| 20260506213217 | 15 | 0.0 | 0.0 | 0.00 | 1.55 | 1.55 | 90 | 1011.4 | |
| 20260506212219 | 15 | 0.0 | 0.0 | 0.00 | 1.55 | 1.55 | 90 | 1011.4 | |
| 20260506211217 | 15 | 0.0 | 0.0 | 0.00 | 1.55 | 1.55 | 89 | 1011.5 | |
| 20260506210219 | 15 | 0.0 | 0.0 | 0.00 | 1.55 | 1.55 | 89 | 1011.5 | |
| 20260506205219 | 15 | 0.0 | 0.0 | 0.00 | 1.55 | 1.55 | 89 | 1011.6 | |
| 20260506204256 | 15 | 0.0 | 0.0 | 0.00 | 1.55 | 1.55 | 89 | 1011.5 | |
| 20260506203219 | 15 | 0.0 | 0.0 | 0.00 | 1.55 | 1.55 | 89 | 1011.5 | |
| 20260506202217 | 15 | 0.0 | 1.6 | 0.00 | 1.55 | 1.55 | 89 | 1011.4 | |
| 20260506201256 | 15 | 0.0 | 0.0 | 0.00 | 1.55 | 1.55 | 90 | 1011.4 | |
| 20260506200218 | 15 | 0.0 | 0.0 | 0.00 | 1.55 | 1.55 | 91 | 1011.3 | |
| 20260506195240 | 15 | 158 | 1.6 | 6.4 | 0.00 | 1.55 | 1.55 | 92 | 1011.1 |
| 20260506194240 | 15 | 0.0 | 0.0 | 0.00 | 1.55 | 1.55 | 92 | 1011.1 | |
| 20260506193256 | 15 | 0.0 | 0.0 | 0.00 | 1.55 | 1.55 | 92 | 1011.0 | |
| 20260506192240 | 15 | 158 | 14.5 | 22.5 | 0.00 | 1.55 | 1.55 | 93 | 1010.9 |
| 20260506191218 | 16 | 0.0 | 0.0 | 0.00 | 1.55 | 1.55 | 93 | 1010.6 | |
| 20260506190245 | 16 | 0.0 | 0.0 | 0.00 | 1.55 | 1.55 | 93 | 1010.4 | |
| 20260506185217 | 16 | 0.0 | 0.0 | 0.00 | 1.55 | 1.55 | 94 | 1010.2 | |
| 20260506184219 | 16 | 0.0 | 0.0 | 0.00 | 1.55 | 1.55 | 94 | 1010.2 | |
| 20260506183256 | 16 | 0.0 | 0.0 | 0.00 | 1.55 | 1.55 | 93 | 1010.1 | |
| 20260506182225 | 16 | 0.0 | 0.0 | 0.00 | 1.55 | 1.55 | 94 | 1010.1 | |
| 20260506181316 | 16 | 0.0 | 0.0 | 0.00 | 1.55 | 1.55 | 93 | 1010.2 | |
| 20260506180220 | 16 | 0.0 | 0.0 | 0.03 | 1.55 | 1.55 | 93 | 1010.1 | |
| 20260506175219 | 16 | 0.0 | 0.0 | 0.03 | 1.55 | 1.55 | 92 | 1010.1 | |
| 20260506174318 | 16 | 0.0 | 0.0 | 0.25 | 1.55 | 1.55 | 92 | 1010.0 | |
| 20260506173219 | 16 | 0.0 | 0.0 | 0.28 | 1.55 | 1.55 | 92 | 1010.1 | |
| 20260506172256 | 16 | 0.0 | 0.0 | 0.28 | 1.55 | 1.55 | 92 | 1010.1 | |
| 20260506171254 | 16 | 0.0 | 0.0 | 0.28 | 1.55 | 1.55 | 91 | 1009.9 | |
| 20260506170217 | 16 | 0.0 | 0.0 | 0.25 | 1.55 | 1.55 | 90 | 1009.7 | |
| 20260506165254 | 17 | 203 | 3.2 | 8.0 | 0.25 | 1.55 | 1.55 | 88 | 1009.8 |
| 20260506164218 | 17 | 248 | 12.9 | 19.3 | 0.03 | 1.30 | 1.30 | 86 | 1009.8 |
| 20260506163218 | 18 | 0.0 | 0.0 | 0.00 | 1.27 | 1.27 | 85 | 1008.9 | |
| 20260506162215 | 18 | 0.0 | 0.0 | 0.00 | 1.27 | 1.27 | 85 | 1009.4 | |
| 20260506161216 | 18 | 0.0 | 0.0 | 0.00 | 1.27 | 1.27 | 85 | 1009.6 | |
| 20260506160254 | 18 | 0.0 | 0.0 | 0.00 | 1.27 | 1.27 | 85 | 1009.6 | |
| 20260506155236 | 18 | 0.0 | 0.0 | 0.00 | 1.30 | 1.27 | 85 | 1009.7 | |
| 20260506154218 | 18 | 0.0 | 0.0 | 0.00 | 1.30 | 1.27 | 86 | 1009.8 | |
| 20260506153216 | 17 | 0.0 | 0.0 | 0.00 | 1.30 | 1.27 | 87 | 1009.9 | |
| 20260506152217 | 17 | 0.0 | 0.0 | 0.00 | 1.30 | 1.27 | 88 | 1010.1 | |
| 20260506151216 | 17 | 0.0 | 0.0 | 0.00 | 1.32 | 1.27 | 88 | 1010.2 | |
| 20260506150216 | 17 | 0.0 | 0.0 | 0.00 | 1.35 | 1.27 | 88 | 1010.4 | |
| 20260506145218 | 17 | 0.0 | 0.0 | 0.03 | 1.37 | 1.27 | 88 | 1010.4 | |
| 20260506144218 | 17 | 0.0 | 0.0 | 0.03 | 1.37 | 1.27 | 89 | 1010.6 | |
| 20260506143223 | 17 | 0.0 | 0.0 | 0.03 | 1.37 | 1.27 | 90 | 1010.6 | |
| 20260506142216 | 17 | 0.0 | 0.0 | 0.03 | 1.40 | 1.27 | 92 | 1010.6 | |
| 20260506141218 | 16 | 0.0 | 0.0 | 0.03 | 1.42 | 1.27 | 92 | 1010.7 | |
| 20260506140216 | 16 | 0.0 | 0.0 | 0.03 | 1.42 | 1.27 | 92 | 1010.7 | |
| 20260506135223 | 16 | 0.0 | 0.0 | 0.00 | 1.40 | 1.27 | 92 | 1010.9 | |
| 20260506134223 | 16 | 0.0 | 0.0 | 0.00 | 1.40 | 1.27 | 91 | 1010.8 | |
| 20260506133254 | 16 | 0.0 | 0.0 | 0.00 | 1.42 | 1.27 | 91 | 1011.0 | |
| 20260506132218 | 16 | 0.0 | 0.0 | 0.00 | 1.42 | 1.27 | 91 | 1011.2 | |
| 20260506131217 | 16 | 0.0 | 0.0 | 0.00 | 1.42 | 1.27 | 91 | 1011.2 | |
| 20260506130218 | 16 | 180 | 1.6 | 4.8 | 0.00 | 1.42 | 1.27 | 91 | 1011.4 |
| 20260506125216 | 16 | 0.0 | 0.0 | 0.00 | 1.42 | 1.27 | 92 | 1011.4 | |
| 20260506124238 | 16 | 0.0 | 4.8 | 0.03 | 1.42 | 1.27 | 92 | 1011.4 | |
| 20260506123254 | 16 | 158 | 11.3 | 17.7 | 0.05 | 1.42 | 1.27 | 92 | 1011.4 |
| 20260506122249 | 16 | 158 | 11.3 | 20.9 | 0.05 | 1.42 | 1.27 | 93 | 1011.4 |
| 20260506121218 | 16 | 158 | 1.6 | 9.7 | 0.05 | 1.42 | 1.27 | 93 | 1011.3 |
| 20260506120218 | 16 | 158 | 1.6 | 6.4 | 0.05 | 1.42 | 1.27 | 93 | 1011.4 |
| 20260506115218 | 15 | 0.0 | 0.0 | 0.05 | 1.42 | 1.27 | 93 | 1011.4 | |
| 20260506114216 | 15 | 158 | 3.2 | 11.3 | 0.05 | 1.42 | 1.24 | 93 | 1011.3 |
| 20260506113254 | 15 | 158 | 6.4 | 12.9 | 0.03 | 1.40 | 1.22 | 93 | 1011.4 |
| 20260506112218 | 15 | 0.0 | 3.2 | 0.03 | 1.45 | 1.22 | 93 | 1011.5 | |
| 20260506111218 | 15 | 158 | 4.8 | 11.3 | 0.03 | 1.45 | 1.22 | 93 | 1011.5 |
| 20260506110249 | 15 | 0.0 | 0.0 | 0.03 | 1.47 | 1.22 | 93 | 1011.6 | |
| 20260506105218 | 15 | 0.0 | 0.0 | 0.03 | 1.50 | 1.22 | 93 | 1011.6 | |
| 20260506104255 | 15 | 135 | 1.6 | 8.0 | 0.03 | 1.50 | 1.19 | 94 | 1011.7 |
| 20260506103216 | 15 | 135 | 6.4 | 16.1 | 0.03 | 1.55 | 1.19 | 94 | 1011.7 |
| 20260506102218 | 15 | 135 | 1.6 | 4.8 | 0.03 | 1.55 | 1.19 | 94 | 1011.7 |
| 20260506101216 | 15 | 135 | 6.4 | 12.9 | 0.03 | 1.55 | 1.19 | 93 | 1011.9 |
| 20260506100218 | 15 | 135 | 8.0 | 14.5 | 0.03 | 1.55 | 1.19 | 93 | 1012.0 |
| 20260506095315 | 15 | 135 | 8.0 | 12.9 | 0.03 | 1.55 | 1.19 | 94 | 1012.0 |
| 20260506094218 | 15 | 135 | 6.4 | 17.7 | 0.03 | 1.52 | 1.17 | 94 | 1012.0 |
| 20260506093218 | 15 | 135 | 8.0 | 14.5 | 0.05 | 1.52 | 1.17 | 94 | 1012.0 |
| 20260506092216 | 15 | 0.0 | 3.2 | 0.05 | 1.52 | 1.17 | 95 | 1011.9 | |
| 20260506091251 | 15 | 113 | 3.2 | 11.3 | 0.10 | 1.52 | 1.17 | 95 | 1011.8 |
| 20260506090216 | 15 | 0.0 | 0.0 | 0.15 | 1.52 | 1.17 | 95 | 1011.9 | |
| 20260506085244 | 15 | 0.0 | 0.0 | 0.18 | 1.52 | 1.17 | 95 | 1011.8 | |
| 20260506084255 | 15 | 0.0 | 0.0 | 0.23 | 1.50 | 1.17 | 95 | 1011.8 | |
| 20260506083218 | 15 | 0.0 | 6.4 | 0.23 | 1.47 | 1.14 | 95 | 1011.8 | |
| 20260506082218 | 15 | 0.0 | 4.8 | 0.23 | 1.45 | 1.12 | 95 | 1011.8 | |
| 20260506081216 | 15 | 0.0 | 0.0 | 0.20 | 1.42 | 1.09 | 95 | 1011.9 | |
| 20260506080218 | 15 | 0.0 | 0.0 | 0.18 | 1.37 | 1.04 | 95 | 1011.6 | |
| 20260506073256 | 15 | 0.0 | 0.0 | 0.15 | 1.27 | 0.91 | 95 | 1011.7 | |
| 20260506072218 | 15 | 0.0 | 0.0 | 0.15 | 1.24 | 0.89 | 95 | 1011.7 | |
| 20260506071239 | 15 | 0.0 | 0.0 | 0.15 | 1.22 | 0.89 | 95 | 1011.7 | |
| 20260506070216 | 15 | 0.0 | 0.0 | 0.15 | 1.19 | 0.86 | 95 | 1011.8 | |
| 20260506062236 | 14 | 0.0 | 0.0 | 0.76 | 1.09 | 0.76 | 94 | 1011.7 | |
| 20260506061218 | 14 | 0.0 | 0.0 | 0.74 | 1.09 | 0.74 | 94 | 1011.6 | |
| 20260506060255 | 14 | 0.0 | 0.0 | 0.71 | 1.04 | 0.71 | 94 | 1011.6 |